EW7114 Weather Reports


Display with metric or nautical units.
time (UTC)temp
F
wind
direction
speed
MPH
gust
MPH
rain 1hr
in
rain 24hr
in
rain mn
in
humidity
%
barometer
mb
20260508060034 46 263 1.0 3.0 0.00 0.00 0.00 15 1009.5
20260508055531 47 267 2.0 3.0 0.00 0.00 0.00 10 1009.3
20260508055030 47 141 0.0 2.0 0.00 0.00 0.00 10 1009.2
20260508054529 47 141 0.0 2.0 0.00 0.00 0.00 1 1009.2
20260508054026 45 141 0.0 2.0 0.00 0.00 0.00 22 1009.2
20260508053526 45 141 0.0 5.0 0.00 0.00 0.00 37 1009.2
20260508053026 46 141 3.0 5.0 0.00 0.00 0.00 41 1009.2
20260508052525 48 359 0.0 3.0 0.00 0.00 0.00 34 1009.0
20260508052020 49 359 0.0 2.0 0.00 0.00 0.00 15 1008.9
20260508051519 49 359 0.0 1.0 0.00 0.00 0.00 6 1008.8
20260508051018 49 359 0.0 1.0 0.00 0.00 0.00 18 1008.8
20260508050516 48 359 0.0 0.0 0.00 0.00 0.00 30 1008.7
20260508050020 48 359 0.0 0.0 0.00 0.00 0.00 43 1008.8
20260508045513 49 359 0.0 0.0 0.00 0.00 0.00 44 1008.7
20260508045012 49 359 0.0 0.0 0.00 0.00 0.00 46 1008.6
20260508044511 50 359 0.0 3.0 0.00 0.00 0.00 48 1008.6
20260508044010 50 359 0.0 3.0 0.00 0.00 0.00 50 1008.6
20260508043508 51 359 1.0 5.0 0.00 0.00 0.00 49 1008.6
20260508043007 51 359 1.0 5.0 0.00 0.00 0.00 51 1008.7
20260508042505 52 359 2.0 4.0 0.00 0.00 0.00 52 1008.6
20260508042003 53 359 0.0 2.0 0.00 0.00 0.00 53 1008.7
20260508041509 53 359 0.0 2.0 0.00 0.00 0.00 53 1008.6
20260508041001 54 359 0.0 1.0 0.00 0.00 0.00 53 1008.5
20260508040559 54 359 0.0 1.0 0.00 0.00 0.00 52 1008.5
20260508040111 55 359 0.0 4.0 0.00 0.00 0.00 52 1008.4
20260508035556 56 359 0.0 4.0 0.00 0.00 0.00 52 1008.4
20260508035501 56 359 1.0 4.0 0.00 0.00 0.00 52 1008.4
20260508035057 56 359 0.0 2.0 0.00 0.00 0.00 51 1008.4
20260508034556 57 359 0.0 2.0 0.00 0.00 0.00 50 1008.4
20260508034051 58 355 0.0 2.0 0.00 0.00 0.00 49 1008.2
20260508033552 59 359 0.0 3.0 0.00 0.00 0.00 48 1008.2
20260508033048 59 359 1.0 4.0 0.00 0.00 0.00 46 1008.1
20260508032547 59 359 1.0 5.0 0.00 0.00 0.00 46 1008.0
20260508032047 59 46 0.0 0.0 0.00 0.00 0.00 48 1008.1
20260508031544 58 335 0.0 0.0 0.00 0.00 0.00 48 1008.1
20260508031044 57 11 0.0 0.0 0.00 0.00 0.00 49 1008.0
20260508030542 57 11 0.0 0.0 0.00 0.00 0.00 49 1008.0
20260508030050 57 11 0.0 0.0 0.00 0.00 0.00 50 1007.9
20260508025539 57 245 0.0 0.0 0.00 0.00 0.00 50 1007.8
20260508025038 57 245 0.0 0.0 0.00 0.00 0.00 50 1007.7
20260508024546 58 245 0.0 4.0 0.00 0.00 0.00 48 1007.6
20260508024037 59 245 2.0 6.0 0.00 0.00 0.00 47 1007.5
20260508023534 60 250 4.0 6.0 0.00 0.00 0.00 46 1007.5
20260508023036 61 242 3.0 6.0 0.00 0.00 0.00 45 1007.6
20260508022531 63 246 0.0 6.0 0.00 0.00 0.00 42 1007.5
20260508022030 64 248 2.0 6.0 0.00 0.00 0.00 40 1007.5
20260508021528 66 213 0.0 3.0 0.00 0.00 0.00 39 1007.4
20260508021029 67 247 0.0 3.0 0.00 0.00 0.00 39 1007.5
20260508020526 68 248 1.0 4.0 0.00 0.00 0.00 38 1007.5
20260508020024 69 219 1.0 4.0 0.00 0.00 0.00 36 1007.5
20260508015523 70 224 1.0 4.0 0.00 0.00 0.00 35 1007.4
20260508015021 71 224 2.0 4.0 0.00 0.00 0.00 34 1007.5
20260508014530 72 258 2.0 4.0 0.00 0.00 0.00 33 1007.5
20260508014018 72 243 2.0 5.0 0.00 0.00 0.00 33 1007.6
20260508013518 73 253 2.0 7.0 0.00 0.00 0.00 33 1007.7
20260508013015 73 226 4.0 8.0 0.00 0.00 0.00 32 1007.8
20260508012518 73 244 3.0 7.0 0.00 0.00 0.00 31 1007.7
20260508012012 73 207 3.0 7.0 0.00 0.00 0.00 31 1007.8
20260508011510 73 263 2.0 9.0 0.00 0.00 0.00 29 1007.9
20260508011009 73 240 4.0 10.0 0.00 0.00 0.00 30 1007.9
20260508010508 72 267 4.0 11.0 0.00 0.00 0.00 29 1008.0
20260508010006 72 242 0.0 4.0 0.00 0.00 0.00 31 1008.0
20260508005513 72 226 2.0 4.0 0.00 0.00 0.00 31 1008.0
20260508005004 72 174 1.0 5.0 0.00 0.00 0.00 30 1008.0
20260508004502 72 263 3.0 9.0 0.00 0.00 0.00 31 1008.2
20260508004003 73 316 5.0 9.0 0.00 0.00 0.00 29 1008.2
20260508003559 73 268 4.0 7.0 0.00 0.00 0.00 29 1008.2
20260508003112 73 274 2.0 9.0 0.00 0.00 0.00 30 1008.3
20260508002556 73 335 3.0 16.0 0.00 0.00 0.00 29 1008.4
20260508002055 73 286 8.0 16.0 0.00 0.00 0.00 29 1008.4
20260508001553 73 291 7.0 13.0 0.00 0.00 0.00 29 1008.5
20260508001053 73 286 3.0 15.0 0.00 0.00 0.00 30 1008.5
20260508000551 74 315 9.0 15.0 0.00 0.00 0.00 28 1008.6
20260508000049 74 273 9.0 13.0 0.00 0.00 0.00 29 1008.6
20260507235548 73 306 9.0 13.0 0.00 0.00 0.00 28 1008.7
20260507235046 73 307 8.0 13.0 0.00 0.00 0.00 28 1008.7
20260507234545 73 240 6.0 13.0 0.00 0.00 0.00 28 1008.7
20260507234043 73 271 5.0 12.0 0.00 0.00 0.00 28 1008.8
20260507233542 73 323 7.0 13.0 0.00 0.00 0.00 27 1008.8
20260507233041 73 280 5.0 13.0 0.00 0.00 0.00 27 1008.9
20260507232538 73 305 7.0 17.0 0.00 0.00 0.00 27 1008.9
20260507232037 73 283 9.0 17.0 0.00 0.00 0.00 27 1009.1
20260507231539 74 336 8.0 13.0 0.00 0.00 0.00 27 1009.0
20260507231034 74 350 4.0 13.0 0.00 0.00 0.00 27 1009.1
20260507230535 74 345 7.0 18.0 0.00 0.00 0.00 26 1009.2
20260507230031 74 296 11.0 18.0 0.00 0.00 0.00 26 1009.2
20260507225530 74 276 6.0 18.0 0.00 0.00 0.00 26 1009.3
20260507225032 75 5 9.0 18.0 0.00 0.00 0.00 26 1009.3
20260507224528 74 294 8.0 15.0 0.00 0.00 0.00 27 1009.4
20260507224026 74 291 5.0 14.0 0.00 0.00 0.00 26 1009.4
20260507223528 74 282 4.0 13.0 0.00 0.00 0.00 27 1009.7
20260507223023 74 355 4.0 15.0 0.00 0.00 0.00 26 1009.7
20260507222522 74 300 5.0 21.0 0.00 0.00 0.00 26 1009.8
20260507222020 74 278 13.0 21.0 0.00 0.00 0.00 28 1009.8
20260507221518 74 274 11.0 18.0 0.00 0.00 0.00 27 1010.0
20260507221018 74 335 2.0 10.0 0.00 0.00 0.00 25 1010.0
20260507220515 74 253 5.0 10.0 0.00 0.00 0.00 27 1010.1
20260507220013 74 359 3.0 12.0 0.00 0.00 0.00 28 1010.1
20260507215513 73 55 7.0 13.0 0.00 0.00 0.00 30 1010.2
20260507215010 74 94 6.0 11.0 0.00 0.00 0.00 27 1010.2
20260507214509 74 77 3.0 13.0 0.00 0.00 0.00 28 1010.3
20260507214008 73 43 9.0 13.0 0.00 0.00 0.00 29 1010.4
20260507213506 73 8 5.0 14.0 0.00 0.00 0.00 30 1010.5
20260507213005 72 20 10.0 17.0 0.00 0.00 0.00 30 1010.6
20260507212503 72 31 10.0 17.0 0.00 0.00 0.00 28 1010.6
20260507212002 73 359 7.0 16.0 0.00 0.00 0.00 29 1010.7
20260507211601 73 275 6.0 16.0 0.00 0.00 0.00 27 1010.7
20260507211058 74 32 5.0 14.0 0.00 0.00 0.00 28 1010.9
20260507210557 74 40 6.0 12.0 0.00 0.00 0.00 28 1011.0
20260507210056 74 24 5.0 13.0 0.00 0.00 0.00 27 1011.1
20260507205556 74 16 7.0 13.0 0.00 0.00 0.00 29 1011.1
20260507205052 74 328 4.0 16.0 0.00 0.00 0.00 28 1011.3
20260507204600 73 33 8.0 16.0 0.00 0.00 0.00 31 1011.4
20260507204051 72 47 6.0 11.0 0.00 0.00 0.00 29 1011.4
20260507203548 71 47 5.0 10.0 0.00 0.00 0.00 29 1011.5
20260507203048 72 7 4.0 12.0 0.00 0.00 0.00 28 1011.7
20260507202545 73 350 3.0 11.0 0.00 0.00 0.00 28 1011.7
20260507202043 73 18 6.0 11.0 0.00 0.00 0.00 27 1011.6
20260507201544 73 62 3.0 7.0 0.00 0.00 0.00 29 1011.7
20260507201041 72 74 3.0 15.0 0.00 0.00 0.00 29 1011.8
20260507200540 72 359 7.0 16.0 0.00 0.00 0.00 29 1011.8
20260507200040 71 345 8.0 13.0 0.00 0.00 0.00 30 1011.9
20260507195540 70 282 8.0 14.0 0.00 0.00 0.00 31 1011.9
20260507195040 70 240 8.0 16.0 0.00 0.00 0.00 32 1012.1
20260507194535 70 248 9.0 15.0 0.00 0.00 0.00 30 1012.0
20260507194034 69 220 4.0 12.0 0.00 0.00 0.00 31 1012.1
20260507193532 69 258 4.0 11.0 0.00 0.00 0.00 31 1012.3
20260507193032 69 219 4.0 11.0 0.00 0.00 0.00 31 1012.4
20260507192527 69 232 5.0 14.0 0.00 0.00 0.00 31 1012.4
20260507192026 70 187 7.0 19.0 0.00 0.00 0.00 31 1012.5
20260507191525 70 237 10.0 20.0 0.00 0.00 0.00 29 1012.5
20260507191027 71 245 9.0 17.0 0.00 0.00 0.00 31 1012.5
20260507190522 71 257 7.0 16.0 0.00 0.00 0.00 30 1012.7
20260507190034 70 225 8.0 16.0 0.00 0.00 0.00 30 1012.7
20260507185519 70 252 5.0 10.0 0.00 0.00 0.00 30 1012.9
20260507185020 70 219 6.0 12.0 0.00 0.00 0.00 30 1012.9
20260507184525 69 177 7.0 12.0 0.00 0.00 0.00 29 1013.0
20260507184014 70 213 7.0 13.0 0.00 0.00 0.00 32 1013.1
20260507183513 70 205 7.0 15.0 0.00 0.00 0.00 30 1013.2
20260507183018 69 203 6.0 12.0 0.00 0.00 0.00 30 1013.2
20260507182510 69 191 7.0 14.0 0.00 0.00 0.00 29 1013.4
20260507182011 69 256 10.0 14.0 0.00 0.00 0.00 30 1013.4
20260507181507 69 201 6.0 10.0 0.00 0.00 0.00 31 1013.5
20260507181005 69 167 6.0 12.0 0.00 0.00 0.00 30 1013.6
20260507180503 68 240 4.0 10.0 0.00 0.00 0.00 31 1013.7
20260507180007 68 195 5.0 10.0 0.00 0.00 0.00 31 1013.8
20260507175501 68 195 5.0 16.0 0.00 0.00 0.00 31 1013.9
20260507175100 68 223 8.0 16.0 0.00 0.00 0.00 31 1014.0
20260507174559 68 181 6.0 13.0 0.00 0.00 0.00 32 1013.9
20260507174056 68 245 7.0 14.0 0.00 0.00 0.00 31 1014.2
20260507173555 68 163 10.0 14.0 0.00 0.00 0.00 31 1014.2
20260507173056 68 182 9.0 13.0 0.00 0.00 0.00 31 1014.1
20260507172552 67 225 6.0 15.0 0.00 0.00 0.00 31 1014.2
20260507172051 67 154 10.0 16.0 0.00 0.00 0.00 31 1014.4
20260507171554 66 150 10.0 16.0 0.00 0.00 0.00 31 1014.5
20260507171047 66 192 9.0 12.0 0.00 0.00 0.00 31 1014.5
20260507170546 66 157 10.0 13.0 0.00 0.00 0.00 32 1014.5
20260507170048 65 186 10.0 14.0 0.00 0.00 0.00 32 1014.7
20260507165544 65 221 10.0 15.0 0.00 0.00 0.00 33 1014.8
20260507165045 64 170 10.0 15.0 0.00 0.00 0.00 33 1014.7
20260507164540 64 182 8.0 14.0 0.00 0.00 0.00 34 1014.9
20260507164039 64 190 10.0 15.0 0.00 0.00 0.00 34 1015.0
20260507163540 64 166 11.0 14.0 0.00 0.00 0.00 33 1015.1
20260507163036 64 144 11.0 13.0 0.00 0.00 0.00 33 1015.0
20260507162535 63 151 9.0 13.0 0.00 0.00 0.00 36 1015.0
20260507162032 63 150 11.0 15.0 0.00 0.00 0.00 35 1015.1
20260507161531 63 195 10.0 14.0 0.00 0.00 0.00 36 1015.2
20260507161029 62 161 11.0 17.0 0.00 0.00 0.00 37 1015.3
20260507160530 61 154 11.0 14.0 0.00 0.00 0.00 38 1015.4
20260507160026 61 165 10.0 15.0 0.00 0.00 0.00 39 1015.5
20260507155525 60 110 9.0 17.0 0.00 0.01 0.00 40 1015.6
20260507155023 59 146 11.0 17.0 0.00 0.01 0.00 41 1015.7
20260507154522 58 156 12.0 18.0 0.00 0.01 0.00 39 1015.7
20260507154021 57 153 12.0 17.0 0.00 0.01 0.00 41 1015.8
20260507153519 56 153 11.0 14.0 0.00 0.01 0.00 42 1016.0
20260507153018 55 162 9.0 14.0 0.00 0.01 0.00 43 1016.3
20260507152516 55 170 9.0 14.0 0.00 0.01 0.00 43 1016.2
20260507152014 55 156 9.0 14.0 0.00 0.01 0.00 43 1016.3
20260507151515 56 157 9.0 14.0 0.00 0.01 0.00 43 1016.4
20260507151011 56 159 10.0 14.0 0.00 0.01 0.00 43 1016.4
20260507150510 56 166 10.0 14.0 0.00 0.01 0.00 43 1016.4
20260507150012 55 167 11.0 15.0 0.00 0.01 0.00 46 1016.4
20260507145507 53 169 9.0 14.0 0.00 0.01 0.00 50 1016.5
20260507145005 51 190 9.0 13.0 0.00 0.01 0.00 51 1016.6
20260507144504 50 175 8.0 12.0 0.00 0.01 0.00 49 1016.7
20260507144003 48 167 7.0 10.0 0.00 0.01 0.00 40 1016.7
20260507143603 47 187 7.0 10.0 0.00 0.01 0.00 23 1016.8
20260507143102 46 153 7.0 9.0 0.00 0.01 0.00 1 1016.8
20260507142558 45 178 5.0 7.0 0.00 0.01 0.00 1 1016.8
20260507142056 44 170 4.0 7.0 0.00 0.01 0.00 1 1016.8
20260507141602 43 175 5.0 8.0 0.00 0.01 0.00 1 1016.7
20260507141053 43 170 6.0 8.0 0.00 0.01 0.00 1 1016.7
20260507140552 42 164 6.0 8.0 0.00 0.01 0.00 1 1016.6
20260507140107 41 175 6.0 9.0 0.00 0.01 0.00 1 1016.6
20260507135548 40 166 7.0 9.0 0.00 0.01 0.00 1 1016.6
20260507135048 39 173 5.0 7.0 0.00 0.01 0.00 1 1016.6
20260507134546 38 148 4.0 8.0 0.00 0.01 0.00 1 1016.6
20260507134044 37 158 5.0 7.0 0.00 0.01 0.00 1 1016.6
20260507133543 36 158 4.0 8.0 0.00 0.01 0.00 1 1016.5
20260507133041 36 136 4.0 8.0 0.00 0.01 0.00 1 1016.5
20260507132539 35 118 3.0 7.0 0.00 0.01 0.00 1 1016.5
20260507132040 35 155 4.0 7.0 0.00 0.01 0.00 1 1016.5
20260507131538 34 155 5.0 7.0 0.00 0.01 0.00 1 1016.6
20260507131037 34 158 5.0 7.0 0.00 0.01 0.00 1 1016.5
20260507130534 34 194 4.0 5.0 0.00 0.01 0.00 1 1016.5
20260507130036 34 184 2.0 4.0 0.00 0.01 0.00 1 1016.5
20260507125534 33 184 1.0 4.0 0.00 0.01 0.00 1 1016.5
20260507125030 33 184 1.0 4.0 0.00 0.01 0.00 1 1016.4
20260507124528 33 184 0.0 4.0 0.00 0.01 0.00 1 1016.4
20260507124027 32 184 0.0 4.0 0.00 0.01 0.00 1 1016.5
20260507123525 32 184 2.0 4.0 0.00 0.01 0.00 1 1016.4
20260507123026 33 219 0.0 3.0 0.00 0.01 0.00 1 1016.4
20260507122521 33 219 1.0 3.0 0.00 0.01 0.00 1 1016.4
20260507122021 33 219 1.0 4.0 0.00 0.01 0.00 1 1016.3
20260507121519 33 194 1.0 3.0 0.00 0.01 0.00 1 1016.3
20260507121021 33 203 0.0 2.0 0.00 0.01 0.00 1 1016.4
20260507120515 33 193 0.0 2.0 0.00 0.01 0.00 1 1016.4
20260507120014 32 193 0.0 2.0 0.00 0.01 0.00 1 1016.3
20260507115513 32 193 0.0 2.0 0.00 0.01 0.00 1 1016.3
20260507115013 32 193 0.0 2.0 0.00 0.01 0.00 1 1016.2
20260507114510 32 193 0.0 3.0 0.00 0.01 0.00 1 1016.2
20260507114010 31 193 1.0 3.0 0.00 0.01 0.00 1 1016.2
20260507113508 31 193 0.0 2.0 0.00 0.01 0.00 1 1016.3
20260507113006 32 193 0.0 3.0 0.00 0.01 0.00 1 1016.3
20260507112505 32 193 2.0 4.0 0.00 0.01 0.00 1 1016.2
20260507112003 32 193 2.0 3.0 0.00 0.01 0.00 1 1016.2
20260507111502 32 193 0.0 2.0 0.00 0.01 0.00 1 1016.3
20260507111100 32 192 0.0 2.0 0.00 0.01 0.00 1 1016.4
20260507110559 32 193 1.0 2.0 0.00 0.01 0.00 1 1016.3
20260507110058 32 193 0.0 3.0 0.00 0.01 0.00 1 1016.3
20260507105556 33 192 0.0 3.0 0.00 0.01 0.00 1 1016.4
20260507105056 33 192 0.0 6.0 0.00 0.01 0.00 1 1016.4
20260507104553 33 192 2.0 6.0 0.00 0.01 0.00 1 1016.3
20260507104052 33 192 2.0 5.0 0.00 0.01 0.00 1 1016.4
20260507103550 33 192 3.0 5.0 0.00 0.01 0.00 1 1016.3
20260507103050 33 193 4.0 6.0 0.00 0.01 0.00 1 1016.3
20260507102548 33 203 2.0 6.0 0.00 0.01 0.00 1 1016.4
20260507102046 33 211 3.0 5.0 0.00 0.01 0.00 1 1016.3
20260507101547 33 178 3.0 6.0 0.00 0.01 0.00 1 1016.3
20260507101042 34 190 3.0 8.0 0.00 0.01 0.00 1 1016.4
20260507100541 34 182 5.0 8.0 0.00 0.01 0.00 1 1016.4
20260507100039 34 206 4.0 7.0 0.00 0.01 0.00 1 1016.5
20260507095538 33 195 3.0 7.0 0.00 0.01 0.00 1 1016.5
20260507095036 32 198 4.0 7.0 0.00 0.01 0.00 1 1016.5
20260507094536 32 190 0.0 4.0 0.00 0.01 0.00 1 1016.5
20260507094033 32 190 2.0 4.0 0.00 0.01 0.00 1 1016.6
20260507093531 32 190 2.0 5.0 0.00 0.01 0.00 1 1016.6
20260507093037 33 177 2.0 6.0 0.00 0.01 0.00 1 1016.6
20260507092532 33 196 4.0 6.0 0.00 0.01 0.00 1 1016.7
20260507092027 34 184 4.0 7.0 0.00 0.01 0.00 1 1016.5
20260507091526 33 192 5.0 8.0 0.00 0.01 0.00 1 1016.6
20260507091026 33 214 5.0 8.0 0.00 0.01 0.00 1 1016.6
20260507090525 33 207 2.0 4.0 0.00 0.01 0.00 1 1016.6
20260507090029 34 263 1.0 4.0 0.00 0.01 0.00 1 1016.7
20260507085520 34 263 0.0 3.0 0.00 0.01 0.00 1 1016.7
20260507085019 34 263 0.0 3.0 0.00 0.01 0.00 1 1016.7
20260507084517 34 263 1.0 3.0 0.00 0.01 0.00 1 1016.7
20260507084017 33 263 0.0 6.0 0.00 0.01 0.00 1 1016.7
20260507083515 33 224 2.0 5.0 0.00 0.01 0.00 1 1016.8
20260507083029 33 224 0.0 3.0 0.00 0.01 0.00 1 1016.7
20260507082511 33 224 0.0 0.0 0.00 0.01 0.00 1 1016.7
20260507082010 33 224 0.0 2.0 0.00 0.01 0.00 1 1016.6
20260507081511 33 224 0.0 3.0 0.00 0.01 0.00 1 1016.8
20260507081007 33 224 2.0 3.0 0.00 0.01 0.00 1 1016.8
20260507080506 33 224 1.0 3.0 0.00 0.01 0.00 1 1016.8
20260507075503 33 224 0.0 1.0 0.00 0.08 0.00 1 1017.0
20260507075001 33 224 0.0 3.0 0.00 0.08 0.00 1 1017.0
20260507074604 34 224 0.0 3.0 0.00 0.08 0.00 1 1017.0
20260507074057 35 224 2.0 3.0 0.00 0.08 0.00 1 1017.0
20260507073556 35 224 2.0 3.0 0.00 0.08 0.00 1 1017.0
20260507073106 35 224 0.0 2.0 0.00 0.08 0.00 1 1017.0
20260507072554 35 224 0.0 3.0 0.00 0.08 0.00 1 1017.1
20260507072052 36 224 0.0 3.0 0.00 0.08 0.00 1 1017.0
20260507071601 36 224 1.0 3.0 0.00 0.08 0.00 1 1017.0
20260507071051 36 224 0.0 3.0 0.00 0.08 0.00 1 1016.8
20260507070548 35 224 2.0 3.0 0.00 0.08 0.00 1 1016.9
20260507070046 35 168 0.0 3.0 0.00 0.08 0.00 5 1016.8
20260507065544 36 168 1.0 3.0 0.00 0.15 0.00 8 1016.9
20260507065046 36 168 1.0 3.0 0.00 0.15 0.00 8 1016.8
20260507064546 36 168 1.0 4.0 0.00 0.15 0.00 20 1016.7
20260507064040 36 168 0.0 4.0 0.00 0.15 0.00 31 1016.7
20260507063539 37 168 3.0 4.0 0.00 0.15 0.00 27 1016.6
20260507063040 37 168 0.0 2.0 0.00 0.15 0.00 30 1016.7
20260507062535 38 168 0.0 4.0 0.00 0.15 0.00 36 1016.9
20260507062034 38 168 2.0 4.0 0.00 0.15 0.00 35 1016.6
20260507061535 39 168 1.0 2.0 0.00 0.15 0.00 33 1016.7
20260507061033 39 168 0.0 2.0 0.00 0.15 0.00 34 1016.7
20260507060530 39 168 1.0 2.0 0.00 0.15 0.00 33 1016.6